Find SPAWAR-CAL-R

NORAD ID: 43776 Int'l Des: 2018-099 Owner: SPAWAR Country: US operational
LEOCIRCULARRETROGRADESSO

現在のビュー

3D地球を読み込み中...

SPAWAR-CAL-Rについて

説明を読み込み中...

次回通過

Passes for default location (London). Set your location on the main map for personalized predictions.

高度履歴

Loading altitude history...

軌道要素

1 43776U 18099U 26146.08545357 .00001490 00000-0 10715-3 0 9991
2 43776 97.4393 187.2747 0021723 77.4297 282.9358 15.05543380408677
Epoch: May 26, 2026 • Age: 18 hours

現在のステータス

高度 549.3 km
速度 7.60 km/s
衛星直下点 78.94°N, 135.24°W
打ち上げ日 Dec 3, 2018
運用期間 7.4 years
タイプ other

技術仕様

分類 Payload
質量 1.00 kg
乾燥質量 1.00 kg
総質量 1.00 kg
長さ 0.10 m
直径 0.10 m
スパン 0.10 m
形状 Box
製造者 SPAWAR
バスタイプ Cubesat 1U
フェーズステータス In Orbit
所有者/国 SPAWAR/US

Most Searched